[[{"header":{"parameterUnit":"m.s-1","parameterCategory":1,"la1":30.2991,"la2":30.254,"lo1":-89.0895,"lo2":-89.0444,"dy":0.0017,"dx":0.0017,"nx":28,"ny":28,"refTime":"2024-04-09T03:00:00:Z","depth":0,"parameterNumber":2,"parameterNumberName":"U-component_of_WINDS"},"data":[0,0,0,0,0,0,0,0,0,0,0,0,0,0,0,0,0,0,0,0,0,0,0,0,0,0,0,0,0,0,0,0,0,0,0,0,0,0,0,0,0,0,0,0,0,0,0,0,0,0,0,0,0,0,0,0,0,0,-6.3517,-6.3518,0,-6.3643,-6.3645,-6.3646,-6.3623,-6.3621,-6.3619,-6.3617,-6.3744,-6.3749,-6.3754,0,0,0,0,0,0,0,0,0,0,0,0,0,-6.3254,-6.3259,-6.3517,-6.3518,-6.352,-6.3643,-6.3645,-6.3647,-6.3624,-6.3621,-6.3618,-6.3616,-6.3742,-6.3748,-6.3755,0,0,0,0,0,0,0,0,0,0,0,0,0,-6.3373,-6.3261,-6.3517,-6.3524,-6.3526,-6.3643,-6.3645,-6.3647,-6.3624,-6.3621,-6.3618,-6.3615,-6.374,-6.3748,-6.3756,-6.3873,0,0,-6.3781,-6.3784,0,0,0,0,0,0,0,0,-6.3366,-6.3383,-6.3521,-6.3523,-6.3526,-6.3614,-6.3599,-6.3723,-6.3625,-6.3587,-6.3617,-6.3613,-6.3703,-6.3714,-6.3745,-6.3879,-6.3885,-6.3782,-6.3787,-6.379,-6.3792,0,0,0,0,0,0,0,-6.3358,-6.3377,-6.3567,-6.3523,-6.3526,-6.352,-6.3533,-6.3622,-6.3662,-6.359,-6.3589,-6.3604,-6.3704,-6.3737,-6.3748,-6.3886,-6.3781,-6.3789,-6.3794,-6.3797,-6.4122,-6.4126,0,0,0,0,0,0,-6.3348,-6.3371,-6.3563,-6.3571,-6.3436,-6.3527,-6.3542,-6.3589,-6.3661,-6.3669,-6.3607,-6.3602,-6.3725,-6.3738,-6.3752,-6.3893,-6.379,-6.3798,-6.3802,-6.4119,-6.4123,-6.4127,0,0,0,0,0,0,-6.3343,-6.3366,-6.3558,-6.347,-6.3494,-6.3535,-6.3588,-6.3593,-6.3627,-6.3674,-6.3681,-6.3634,-6.3723,-6.3741,-6.3843,-6.3897,-6.3801,-6.3809,-6.4114,-6.412,-6.4125,-6.4175,0,0,0,0,0,0,-6.3335,-6.3364,-6.3409,-6.3472,-6.3499,-6.3647,-6.3592,-6.3598,-6.3641,-6.3637,-6.3701,-6.3708,-6.3722,-6.3831,-6.3851,-6.3906,-6.3815,-6.4109,-6.4117,-6.4123,-6.4169,-6.4182,-6.4193,0,0,0,0,0,-6.3326,-6.3418,-6.3411,-6.3435,-6.3557,-6.365,-6.3666,-6.368,-6.3646,-6.3691,-6.3721,-6.3706,-6.3889,-6.3842,-6.3864,-6.3923,-6.4106,-6.4115,-6.4123,-6.4164,-6.418,-6.4193,0,0,0,0,0,0,-6.3359,-6.3426,-6.3419,-6.3535,-6.3587,-6.3646,-6.3703,-6.3697,-6.3759,-6.3752,-6.3767,-6.3781,-6.3885,-6.3915,-6.3861,-6.404,-6.3992,-6.4006,-6.4016,-6.4031,-6.4043,-6.4032,-6.3822,0,0,0,0,0,-6.338,-6.3451,-6.3506,-6.3602,-6.3629,-6.3662,-6.3703,-6.371,-6.3764,-6.3786,-6.3824,-6.3877,-6.3946,-6.3991,-6.4057,-6.4175,-6.4187,-6.4226,-6.4238,-6.4248,-6.4258,-6.4321,-6.4338,-6.4155,-6.4155,-6.4155,0,0,-6.3423,-6.3469,-6.3512,-6.361,-6.3651,-6.3723,-6.368,-6.3759,-6.3812,-6.3798,-6.3896,-6.3926,-6.3986,-6.4096,-6.4147,-6.4124,-6.4312,-6.4259,-6.4266,-6.4271,-6.4331,-6.4349,-6.4364,-6.416,-6.4159,-6.4159,0,0,-6.3538,-6.3581,-6.3665,-6.3708,-6.3772,-6.3793,-6.3814,-6.3875,-6.3894,-6.3994,-6.3984,-6.4048,-6.4168,-6.421,-6.4248,-6.4381,-6.4369,-6.4403,-6.4464,-6.4525,-6.454,-6.4552,-6.4597,-6.4614,-6.4414,-6.4414,-6.4414,0,-6.3583,-6.3692,-6.3709,-6.3788,-6.3831,-6.3823,-6.3907,-6.3948,-6.403,-6.4059,-6.4034,-6.4183,-6.4223,-6.4342,-6.4375,-6.4407,-6.4429,-6.4393,-6.4537,-6.455,-6.4562,-6.4605,-6.4622,-6.4417,-6.4417,-6.4417,-6.4416,0,-6.3744,-6.382,-6.388,-6.396,-6.401,-6.4091,-6.4119,-6.4168,-6.4171,-6.4196,-6.4297,-6.4346,-6.4421,-6.4451,-6.4455,-6.4571,-6.4554,-6.4533,-6.4485,-6.4582,-6.4623,-6.464,-6.4422,-6.4421,-6.442,-6.4419,0,0,-6.3879,-6.3969,-6.399,-6.4026,-6.4097,-6.4155,-6.4237,-6.4312,-6.4352,-6.441,-6.4477,-6.458,-6.456,-6.4603,-6.4612,-6.4666,-6.4766,-6.4638,-6.4639,-6.4657,-6.4895,-6.4907,-6.4926,-6.476,-6.4764,-6.4766,-6.4888,0,-6.3999,-6.4142,-6.416,-6.4288,-6.4357,-6.4352,-6.4423,-6.4474,-6.45,-6.4562,-6.4591,-6.4662,-6.4632,-6.4658,-6.4711,-6.4742,-6.4813,-6.4735,-6.4821,-6.4824,-6.4802,-6.4948,-6.4962,-6.5075,-6.4905,-6.4908,-6.491,0,-6.4156,-6.4218,-6.4353,-6.4414,-6.4443,-6.4507,-6.4576,-6.4637,-6.4695,-6.471,-6.4758,-6.4761,-6.4844,-6.4797,-6.4911,-6.4857,-6.4894,-6.4915,-6.492,-6.4925,-6.4869,-6.4954,-6.5111,-6.5127,-6.4935,-6.4933,-6.4931,0,-6.4237,-6.4356,-6.4451,-6.4482,-6.4557,-6.4601,-6.4634,-6.4689,-6.4732,-6.4794,-6.4822,-6.4893,-6.4931,-6.4985,-6.5006,-6.497,-6.5119,-6.5073,-6.5132,-6.5131,-6.516,-6.5157,-6.5322,-6.519,-6.519,-6.519,-6.5189,0,-6.4366,-6.4448,-6.4488,-6.4546,-6.4638,-6.4659,-6.4748,-6.4779,-6.4828,-6.4892,-6.4893,-6.4953,-6.4979,-6.5043,-6.5061,-6.5151,-6.517,-6.5183,-6.5185,-6.518,-6.5178,-6.5202,-6.5193,-6.5194,-6.5193,-6.5192,-6.5192,0,-6.4471,-6.4502,-6.4605,-6.4668,-6.4685,-6.4749,-6.4803,-6.4859,-6.4885,-6.4966,-6.4986,-6.5027,-6.5102,-6.513,-6.5222,-6.5234,-6.5338,-6.5336,-6.5318,-6.5318,-6.5373,-6.5366,-6.5556,-6.5581,-6.5436,-6.5438,-6.5439,0,-6.4549,-6.4611,-6.4681,-6.4724,-6.4759,-6.4829,-6.4874,-6.4897,-6.4944,-6.5015,-6.5062,-6.5138,-6.5198,-6.5319,-6.5356,-6.5426,-6.5424,-6.5486,-6.5434,-6.5427,-6.5421,-6.5415,-6.5421,-6.5494,-6.5495,-6.5496,-6.5497,0,-6.4683,-6.4696,-6.4761,-6.4832,-6.4885,-6.4942,-6.4997,-6.5033,-6.5064,-6.5117,-6.5194,-6.5242,-6.5336,-6.5409,-6.5482,-6.5515,-6.5511,-6.5514,-6.5531,-6.5524,-6.5509,-6.5515,-6.534,-6.5509,-6.5507,-6.5507,-6.5506,-6.5506,-6.4775,-6.483,-6.4887,-6.496,-6.5004,-6.5056,-6.5111,-6.5145,-6.521,-6.5288,-6.5299,-6.5382,-6.5438,-6.5535,-6.5572,-6.5636,-6.5619,-6.5644,-6.565,-6.5655,-6.5657,-6.5503,-6.565,-6.565,-6.5649,-6.5649,-6.5649,0,-6.4906,-6.4944,-6.5011,-6.5088,-6.5145,-6.5139,-6.52,-6.5247,-6.532,-6.5373,-6.5434,-6.5522,-6.5594,-6.5639,-6.5711,-6.5754,-6.5754,-6.5772,-6.5767,-6.5774,-6.5669,-6.5646,-6.577,-6.577,-6.577,-6.577,-6.577,-6.577,-6.4981,-6.5073,-6.5093,-6.5207,-6.5244,-6.5325,-6.536,-6.5407,-6.545,-6.5549,-6.5609,-6.5638,-6.5688,-6.5764,-6.583,-6.5841,-6.5866,-6.5885,-6.5894,-6.5794,-6.5782,-6.5769,-6.5747,-6.5891,-6.5891,-6.5993,-6.5994,-6.5994]},{"header":{"parameterUnit":"m.s-1","parameterCategory":1,"la1":30.2991,"la2":30.254,"lo1":-89.0895,"lo2":-89.0444,"dy":0.0017,"dx":0.0017,"nx":28,"ny":28,"refTime":"2024-04-09T03:00:00:Z","depth":0,"parameterNumber":3,"parameterNumberName":"V-component_of_WINDS"},"data":[0,0,0,0,0,0,0,0,0,0,0,0,0,0,0,0,0,0,0,0,0,0,0,0,0,0,0,0,0,0,0,0,0,0,0,0,0,0,0,0,0,0,0,0,0,0,0,0,0,0,0,0,0,0,0,0,0,0,4.0161,4.0162,0,4.0236,4.0237,4.0238,4.024,4.0239,4.0238,4.0237,4.0312,4.0315,4.0317,0,0,0,0,0,0,0,0,0,0,0,0,0,4.0019,4.0022,4.0161,4.0162,4.0163,4.0236,4.0237,4.0238,4.024,4.0239,4.0238,4.0237,4.0311,4.0314,4.0318,0,0,0,0,0,0,0,0,0,0,0,0,0,4.0086,4.0022,4.0161,4.0173,4.0175,4.0236,4.0237,4.0238,4.024,4.0239,4.0238,4.0236,4.031,4.0314,4.0318,4.0372,0,0,4.0331,4.0333,0,0,0,0,0,0,0,0,4.0082,4.0091,4.017,4.0172,4.0174,4.0227,4.0214,4.0283,4.0241,4.0215,4.0237,4.0236,4.0285,4.0291,4.0308,4.0375,4.0378,4.0332,4.0334,4.0336,4.0337,0,0,0,0,0,0,0,4.0078,4.0088,4.019,4.0171,4.0174,4.0174,4.0182,4.0227,4.0257,4.0217,4.0218,4.0227,4.0286,4.0304,4.031,4.0379,4.0331,4.0335,4.0338,4.0339,4.0497,4.0498,0,0,0,0,0,0,4.0071,4.0084,4.0188,4.0193,4.0124,4.0178,4.0187,4.0212,4.0256,4.0262,4.0228,4.0227,4.0297,4.0305,4.0312,4.038,4.0336,4.034,4.0342,4.0495,4.0497,4.0499,0,0,0,0,0,0,4.0068,4.008,4.0185,4.0139,4.0152,4.0182,4.021,4.0214,4.0232,4.0264,4.0269,4.0241,4.0297,4.0306,4.0358,4.0382,4.0342,4.0346,4.0493,4.0496,4.0498,4.0513,0,0,0,0,0,0,4.0064,4.0079,4.0099,4.0139,4.0155,4.0229,4.0211,4.0216,4.024,4.0239,4.0278,4.0283,4.0296,4.0351,4.0362,4.0387,4.0349,4.0491,4.0494,4.0497,4.0511,4.0516,4.052,0,0,0,0,0,4.0058,4.0099,4.01,4.0113,4.0181,4.0231,4.0239,4.0254,4.0242,4.0263,4.0284,4.0282,4.0378,4.0357,4.0368,4.0395,4.049,4.0493,4.0497,4.0508,4.0515,4.052,0,0,0,0,0,0,4.006,4.0105,4.0106,4.0161,4.0193,4.0231,4.0258,4.026,4.0295,4.0292,4.0309,4.0317,4.0369,4.0387,4.0363,4.0451,4.0432,4.0438,4.0437,4.0443,4.0448,4.0442,4.0353,0,0,0,0,0,4.0068,4.0105,4.0141,4.0186,4.0202,4.0227,4.0249,4.0259,4.0291,4.0304,4.0328,4.0359,4.0397,4.0421,4.0457,4.0513,4.0523,4.0538,4.0543,4.0547,4.0552,4.0585,4.0593,4.0511,4.0511,4.0511,0,0,4.0082,4.0111,4.0133,4.0188,4.0213,4.0251,4.0238,4.0278,4.0307,4.031,4.036,4.038,4.0415,4.047,4.0495,4.0487,4.0577,4.0551,4.0554,4.0557,4.059,4.0597,4.0604,4.0513,4.0513,4.0513,0,0,4.0128,4.0153,4.0195,4.0221,4.026,4.0277,4.0287,4.0326,4.0339,4.039,4.0394,4.0428,4.0491,4.0518,4.0539,4.0598,4.0599,4.061,4.0635,4.0667,4.0673,4.0679,4.0702,4.0709,4.0615,4.0615,4.0615,0,4.0141,4.0199,4.0216,4.0257,4.0282,4.0287,4.033,4.0354,4.0402,4.0419,4.0409,4.0491,4.0515,4.0577,4.0592,4.0609,4.0621,4.0605,4.0671,4.0677,4.0683,4.0705,4.0713,4.0616,4.0616,4.0616,4.0615,0,4.0214,4.0255,4.0284,4.0332,4.036,4.0401,4.0424,4.045,4.0458,4.0476,4.0529,4.0559,4.0602,4.0617,4.0624,4.0681,4.0675,4.0668,4.065,4.0692,4.0712,4.0721,4.0617,4.0617,4.0617,4.0616,0,0,4.0263,4.0321,4.0332,4.0355,4.0399,4.043,4.0473,4.0516,4.0539,4.0573,4.0609,4.0664,4.0659,4.0684,4.0694,4.0722,4.0769,4.0712,4.0713,4.0722,4.0835,4.0841,4.085,4.077,4.0771,4.0772,4.0833,0,4.0315,4.0391,4.0408,4.0474,4.0513,4.052,4.0557,4.0588,4.0607,4.0642,4.0662,4.0702,4.0691,4.0707,4.0735,4.0757,4.0792,4.0753,4.0804,4.0806,4.0796,4.0861,4.0866,4.0922,4.0841,4.0842,4.0843,0,4.0385,4.0423,4.0493,4.0534,4.0551,4.0584,4.0627,4.066,4.0696,4.0708,4.0737,4.0745,4.079,4.077,4.0833,4.0806,4.0828,4.0842,4.0845,4.085,4.0827,4.0869,4.094,4.0948,4.0856,4.0855,4.0854,0,4.0415,4.0483,4.0534,4.0553,4.0602,4.0626,4.0648,4.0683,4.0709,4.0745,4.0763,4.0804,4.0827,4.0858,4.0877,4.0861,4.094,4.092,4.0951,4.0951,4.0967,4.0966,4.1043,4.098,4.098,4.098,4.098,0,4.0472,4.0515,4.0549,4.058,4.0629,4.0649,4.0696,4.0718,4.0749,4.0786,4.0794,4.0827,4.085,4.0887,4.0902,4.0953,4.0962,4.0974,4.0977,4.0973,4.0972,4.0988,4.0985,4.0982,4.0982,4.0981,4.0981,0,4.0514,4.0538,4.0595,4.0638,4.0649,4.0684,4.072,4.0752,4.0771,4.0817,4.0829,4.0859,4.0904,4.0926,4.098,4.099,4.1048,4.1049,4.1036,4.1038,4.1068,4.1065,4.1159,4.1173,4.1099,4.11,4.1101,0,4.0549,4.0583,4.063,4.0655,4.0678,4.0718,4.0745,4.0766,4.0794,4.0839,4.0865,4.091,4.0948,4.1018,4.1045,4.1087,4.109,4.112,4.1096,4.1092,4.1092,4.109,4.1094,4.1124,4.1125,4.1125,4.1126,0,4.0609,4.062,4.0659,4.0703,4.0736,4.0771,4.0806,4.0826,4.0853,4.0883,4.093,4.0959,4.1016,4.1061,4.1106,4.1128,4.1132,4.1133,4.1143,4.1139,4.1132,4.1138,4.1049,4.1131,4.113,4.113,4.113,4.1129,4.065,4.0681,4.072,4.0764,4.0792,4.0825,4.0858,4.0882,4.0921,4.097,4.098,4.1029,4.1066,4.1127,4.1151,4.119,4.1183,4.1197,4.12,4.1203,4.1206,4.1125,4.1198,4.1198,4.1197,4.1197,4.1197,0,4.0712,4.0738,4.0778,4.0827,4.0862,4.0864,4.0903,4.0932,4.0976,4.101,4.1048,4.1102,4.1146,4.1177,4.1222,4.1248,4.1251,4.1259,4.1257,4.1263,4.1208,4.1196,4.1256,4.1256,4.1256,4.1256,4.1256,4.1256,4.0749,4.0802,4.0818,4.0886,4.0911,4.096,4.0983,4.1014,4.1042,4.1102,4.114,4.116,4.1194,4.1242,4.1283,4.1291,4.1307,4.1316,4.1324,4.1273,4.1266,4.1261,4.1249,4.1319,4.1319,4.1376,4.1376,4.1377]}]]